Weather History for Sheridan, WY

Change the Weather History Date:

Wednesday, December 26, 2012

  Actual Average Record
Temperature  
Mean Temperature -14 °C -6 °C  
Max Temperature -9 °C 2 °C 19 °C (1980)
Min Temperature -19 °C -12 °C -33 °C (1996)
Degree Days  
Heating Degree Days 58 43  
Month to date heating degree days 1017 1095  
Since 1 July heating degree days 2701 2973  
Cooling Degree Days 0 0  
Month to date cooling degree days 0 0  
Year to date cooling degree days 664 419  
Moisture  
Dew Point -15 °C    
Average Humidity 83    
Maximum Humidity 95    
Minimum Humidity 70    
Precipitation  
Precipitation 2.29 mm 0.51 mm 1.02 mm (1923)
Month to date precipitation 0.43 0.48  
Year to date precipitation 9.46 14.08  
Sea Level Pressure  
Sea Level Pressure 1013 hPa    
Wind  
Wind Speed 4 km/h (NW)    
Max Wind Speed 23 km/h    
Max Gust Speed 26 km/h    
Visibility 10 kilometers    
Events Snow    
T = Trace of Precipitation, MM = Missing Value Source: NWS Daily Summary

Daily Weather History Graph

Daily Weather History Graph

Search for Another Location

Airport:

Trip Planner

Search our weather history database for the weather conditions in past years. The results will help you decide how hot, cold, wet, or windy it might be!

Date:

Astronomy

Dec. 26, 2012 Rise Set
Actual Time 7:44 AM MST 4:33 PM MST
Civil Twilight 7:10 AM MST 5:06 PM MST
Nautical Twilight 6:33 AM MST 5:44 PM MST
Astronomical Twilight 5:58 AM MST 6:19 PM MST
Moon 3:30 PM MST (12/26) 6:09 AM MST (12/26)
Length of Visible Light 9h 56m
Length of Day
8h 48m
Waxing Gibbous, 98% of the Moon is Illuminated
Dec 26
Waxing Gibbous
Dec 28
Full
Jan 4
Last Quarter
Jan 11
New
Jan 18
First Quarter

Hourly Weather History & Observations

Time (MST) Temp. Windchill Dew Point Humidity Pressure Visibility Wind Dir Wind Speed Gust Speed Precip Events Conditions
12:53 AM -16.7 °C - -19.4 °C 80% 1020.8 hPa 16.1 km Calm Calm - N/A   Clear
1:53 AM -16.7 °C - -18.9 °C 83% 1020.0 hPa 16.1 km Calm Calm - N/A   Clear
2:53 AM -16.1 °C - -18.3 °C 84% 1019.1 hPa 16.1 km Calm Calm - N/A   Clear
3:53 AM -17.2 °C - -20.0 °C 79% 1018.7 hPa 16.1 km Calm Calm - N/A   Partly Cloudy
4:53 AM -17.2 °C -21.5 °C -19.4 °C 83% 1018.6 hPa 16.1 km SE 5.6 km/h / 1.5 m/s - N/A   Clear
5:53 AM -16.7 °C - -18.9 °C 83% 1018.0 hPa 16.1 km Calm Calm - N/A   Clear
6:53 AM -17.2 °C -21.5 °C -20.0 °C 79% 1018.2 hPa 16.1 km North 5.6 km/h / 1.5 m/s - N/A   Clear
7:53 AM -16.7 °C - -18.3 °C 88% 1017.5 hPa 16.1 km Calm Calm - N/A   Mostly Cloudy
8:53 AM -16.1 °C - -17.8 °C 87% 1017.9 hPa 16.1 km Calm Calm - N/A   Overcast
9:53 AM -13.9 °C - -16.1 °C 84% 1017.5 hPa 16.1 km Calm Calm - N/A   Overcast
10:53 AM -12.8 °C - -16.1 °C 77% 1017.2 hPa 16.1 km Calm Calm - N/A   Mostly Cloudy
11:53 AM -11.1 °C - -15.0 °C 73% 1015.7 hPa 16.1 km Calm Calm - N/A   Overcast
12:53 PM -10.6 °C - -14.4 °C 74% 1013.8 hPa 16.1 km Calm Calm - N/A   Overcast
1:53 PM -10.0 °C - -13.9 °C 74% 1013.1 hPa 16.1 km Calm Calm - N/A   Overcast
2:53 PM -9.4 °C - -13.3 °C 74% 1013.0 hPa 16.1 km Calm Calm - N/A   Overcast
3:53 PM -10.0 °C -14.2 °C -13.9 °C 74% 1013.3 hPa 16.1 km NNE 7.4 km/h / 2.1 m/s - N/A   Overcast
4:53 PM -10.6 °C -14.9 °C -13.9 °C 77% 1013.6 hPa 9.7 km NNE 7.4 km/h / 2.1 m/s - 0.0 mm Snow Light Snow
5:24 PM -11.0 °C -15.4 °C -14.0 °C 79% 1006.0 hPa 4.0 km NNE 7.4 km/h / 2.1 m/s - N/A Snow Light Snow
5:53 PM -11.1 °C -14.5 °C -13.3 °C 84% 1013.8 hPa 4.0 km NNW 5.6 km/h / 1.5 m/s - 0.3 mm Snow Light Snow
6:00 PM -11.0 °C -15.4 °C -13.0 °C 85% 1006.0 hPa 3.2 km NNW 7.4 km/h / 2.1 m/s - 0.0 mm Snow Light Snow
6:53 PM -10.6 °C -13.9 °C -12.8 °C 84% 1013.9 hPa 3.2 km WNW 5.6 km/h / 1.5 m/s - 0.3 mm Snow Light Snow
7:04 PM -11.0 °C -15.4 °C -13.0 °C 85% 1006.3 hPa 2.8 km WNW 7.4 km/h / 2.1 m/s - 0.3 mm Snow Light Snow
7:14 PM -11.0 °C -14.4 °C -13.0 °C 85% 1006.3 hPa 3.2 km NW 5.6 km/h / 1.5 m/s - 0.3 mm Snow Light Snow
7:53 PM -10.6 °C -13.9 °C -12.2 °C 88% 1013.9 hPa 3.2 km NW 5.6 km/h / 1.5 m/s - 0.5 mm Snow Light Snow
8:01 PM -11.0 °C -15.4 °C -12.0 °C 92% 1006.3 hPa 4.0 km NW 7.4 km/h / 2.1 m/s - 0.0 mm Snow Light Snow
8:08 PM -10.0 °C -15.0 °C -12.0 °C 86% 1006.3 hPa 4.8 km NW 9.3 km/h / 2.6 m/s - 0.0 mm Snow Light Snow
8:53 PM -10.6 °C -15.7 °C -12.8 °C 84% 1013.8 hPa 8.0 km NW 9.3 km/h / 2.6 m/s - 0.0 mm Snow Light Snow
9:12 PM -11.0 °C -16.8 °C -13.0 °C 85% 1006.3 hPa 3.2 km NW 11.1 km/h / 3.1 m/s - 0.3 mm Snow Light Snow
9:53 PM -10.6 °C -16.3 °C -12.8 °C 84% 1013.4 hPa 3.2 km WNW 11.1 km/h / 3.1 m/s - 0.5 mm Snow Light Snow
10:53 PM -10.6 °C -17.9 °C -12.8 °C 84% 1013.6 hPa 3.2 km WNW 16.7 km/h / 4.6 m/s - 0.3 mm Snow Light Snow
11:37 PM -11.0 °C -19.2 °C -13.0 °C 85% 1006.7 hPa 2.8 km WNW 20.4 km/h / 5.7 m/s - 0.3 mm Snow Light Snow
11:45 PM -11.0 °C -19.2 °C -13.0 °C 85% 1006.7 hPa 3.2 km WNW 20.4 km/h / 5.7 m/s - 0.3 mm Snow Light Snow
11:53 PM -11.1 °C -19.6 °C -13.3 °C 84% 1013.7 hPa 2.8 km WNW 22.2 km/h / 6.2 m/s - 0.5 mm Snow Light Snow